#timestamp,LO_Frequency,Hit,StdDev 
1512075615.6,286046999.2,N
1512075635.5,286046998.1,N
1512075655.3,286047000.6,N
1512075675.1,286046998.8,N
1512075695.9,286046998.1,N
1512075715.7,286047002.4,N
1512075735.5,286047004.0,N
1512075755.4,286047003.7,N
1512075775.2,286047000.8,N
1512075795.0,286047001.8,N
1512075795.9,286047001.8,N
1512075815.8,286046998.6,N
1512075835.6,286046999.4,N
1512075855.4,286046996.7,N
1512075875.2,286046998.5,N
1512075895.1,286047001.0,N
1512075896.0,286047001.0,N
1512075915.8,286047000.9,N
1512075935.6,286047000.0,N
1512075955.5,286047004.8,N
1512075975.3,286047007.4,N
1512075995.1,286047007.0,N
1512076015.9,286047007.6,N
1512076035.7,286047007.5,N
1512076055.5,286047005.1,N
1512076075.4,286047003.9,N
1512076095.2,286047002.0,N
1512076115.0,286047005.6,N
1512076115.9,286047005.6,N
1512076135.8,286047001.4,N
1512076155.6,286047001.4,N
1512076175.4,286047008.5,N
1512076195.3,286047007.8,N
1512076215.1,286047006.5,N
1512076216.0,286047006.5,N
1512076235.8,286047007.5,N
1512076255.7,286047006.7,N
1512076275.5,286047009.1,N
1512076295.3,286047008.0,N
1512076315.1,286047009.1,N
1512076335.9,286047010.7,N
1512076355.7,286047012.2,Y
1512076375.5,286047004.7,P
1512076395.4,286047004.6,P
1512076415.2,286047010.4,P
1512076435.0,286047007.5,N
1512076436.0,286047007.5,Y
1512076455.8,286046995.6,P
1512076475.6,286046992.0,N
1512076495.4,286046988.7,N
1512076515.3,286046989.8,N
1512076535.1,286046989.1,N
1512076555.8,286046989.1,N
1512076575.7,286046987.5,N
1512076595.5,286046986.9,N
1512076615.3,286046986.4,N
1512076635.2,286046984.7,N
1512076655.9,286046984.1,N
1512076675.7,286046985.2,N
1512076695.6,286046981.6,Y
1512076715.4,286046990.7,P
1512076735.2,286046993.8,P
1512076755.1,286046992.1,P
1512076756.0,286046992.1,Y
1512076775.8,286047001.2,P
1512076795.6,286047004.3,N
1512076815.5,286047003.3,N
1512076835.3,286047003.4,N
1512076855.1,286047007.1,N
1512076875.9,286047007.3,N
1512076895.7,286047006.2,N
1512076915.5,286047004.6,N
1512076935.3,286047001.6,N
1512076955.2,286047001.3,N
1512076975.0,286047004.5,N
1512076975.9,286047004.5,N
1512076995.7,286047007.1,N
1512077015.6,286047007.6,N
1512077035.4,286047008.3,N
1512077055.2,286047013.6,Y
1512077075.1,286047013.4,P
1512077076.0,286047013.4,N
1512077095.8,286047014.3,P
1512077115.6,286047020.4,Y
1512077135.5,286047009.3,P
1512077155.3,286047017.1,P
1512077175.1,286047015.8,P
1512077195.9,286047014.9,Y
1512077215.7,286047004.0,P
1512077235.5,286047002.6,N
1512077255.4,286047002.4,N
1512077275.2,286047004.4,N
1512077295.0,286047006.2,N
1512077295.9,286047006.2,N
1512077315.8,286047009.9,N
1512077335.6,286047014.1,Y
1512077355.4,286047012.8,P
1512077375.3,286047011.2,P
1512077395.1,286047013.2,P
1512077415.8,286047014.2,Y
1512077435.7,286047006.0,P
1512077455.5,286047006.9,N
1512077475.3,286047008.7,P
1512077495.2,286047008.5,Y
1512077515.9,286046998.1,P
1512077535.7,286047000.7,N
1512077555.6,286046998.2,N
1512077575.4,286046999.9,N
1512077595.2,286047000.7,N
1512077615.1,286047002.8,N
1512077616.0,286047002.8,N
1512077635.8,286047002.3,N
1512077655.6,286047002.7,N
1512077675.5,286046999.7,N
1512077695.3,286047004.4,N
1512077715.1,286047003.2,N
1512077735.8,286047000.5,N
1512077755.7,286046998.5,N
1512077775.5,286046995.1,N
1512077795.3,286046997.0,N
1512077815.2,286046999.0,N
1512077835.9,286046997.7,N
1512077855.7,286046994.6,N
1512077875.6,286046993.1,N
1512077895.4,286046987.3,Y
1512077915.2,286046985.3,P
1512077935.1,286046988.6,N
1512077936.0,286046988.6,N
1512077955.8,286046991.1,N
1512077975.6,286046991.3,N
1512077995.5,286046990.7,N
1512078015.3,286046989.2,N
1512078035.1,286046987.1,Y
1512078055.9,286046988.9,P
1512078075.7,286046986.8,P
1512078095.5,286046989.4,P
1512078115.4,286046989.1,Y
1512078135.2,286047001.7,P
1512078155.0,286047007.4,N
1512078155.9,286047007.4,N
1512078175.8,286047007.7,N
1512078195.6,286047008.9,N
1512078215.4,286047011.4,N
1512078235.2,286047012.5,N
1512078255.1,286047016.4,N
1512078256.0,286047016.4,N
1512078275.8,286047018.5,N
1512078295.6,286047016.1,N
1512078315.5,286047018.4,N
1512078335.3,286047019.2,N
1512078355.1,286047019.4,N
1512078375.9,286047021.6,N
1512078395.7,286047021.5,N
1512078415.5,286047020.1,N
1512078435.4,286047019.4,N
1512078455.2,286047019.0,N
1512078475.0,286047017.7,N
1512078475.9,286047017.7,N
1512078495.8,286047019.6,N
1512078515.6,286047020.5,N
1512078535.4,286047023.1,Y
1512078555.3,286047009.1,P
1512078575.1,286047010.2,P
1512078576.0,286047010.2,P
1512078595.8,286047010.2,Y
1512078615.7,286046997.1,P
1512078635.5,286046999.1,N
1512078655.3,286047000.7,N
1512078675.2,286046997.2,N
1512078695.9,286046996.8,N
1512078715.7,286046996.5,N
1512078735.5,286047001.1,N
1512078755.4,286046997.2,N
1512078775.2,286046998.0,N
1512078795.0,286046995.4,N
1512078795.9,286046995.4,N
1512078815.8,286046993.8,N
1512078835.6,286046990.5,N
1512078855.4,286046989.5,N
1512078875.3,286046989.8,N
1512078895.1,286046983.8,Y
1512078915.8,286046985.6,P
1512078935.7,286046986.3,N
1512078955.5,286046981.3,P
1512078975.3,286046975.4,Y
1512078995.2,286046984.8,P
1512079015.9,286046983.6,P
1512079035.7,286046983.6,P
1512079055.6,286046980.3,Y
1512079075.4,286046994.5,P
1512079095.2,286046994.3,N
1512079115.1,286046996.2,N
1512079116.0,286046996.2,N
1512079135.8,286046992.9,N
1512079155.6,286046991.6,N
1512079175.5,286046992.8,N
1512079195.3,286046991.4,N
